Location: Burchio
(43.6833°N, 11.4500°E)
Time: 01:53:40
(UTC+00:00)

Daily predictions for brighter satellites

Satellite Brightness Start Highest point End
(mag) Time Altitude Azimuth Time Altitude Azimuth Time Altitude Azimuth
Cosmos 1464 Rocket 4.0 00:08:47 67° W 00:08:57 68° W 00:15:11 10° N
Cosmos 2219 Rocket 2.5 00:06:29 10° NNW 00:11:13 57° WNW 00:11:13 57° WNW
Lacrosse 4 Rocket 3.0 00:13:01 31° NNW 00:13:01 31° NNW 00:16:04 10° NNE
Cosmos 1354 Rocket 4.3 00:16:38 62° NW 00:16:38 62° NW 00:21:34 10° NNE
SL-4 R/B 4.1 00:22:19 20° NE 00:22:19 20° NE 00:24:08 10° ENE
SL-16 R/B 4.3 00:18:54 10° N 00:23:27 24° NE 00:27:58 10° ESE
COSMOS 2428 3.2 00:24:39 10° NW 00:29:12 47° WNW 00:29:12 47° WNW
SL-16 R/B 2.9 00:28:37 42° SE 00:30:35 59° ENE 00:36:44 10° N
BREEZE-M TANK 3.9 00:36:08 30° ENE 00:36:08 30° ENE 00:38:35 10° E
Nadezhda 4 Rocket 4.0 00:28:52 10° NNW 00:35:06 63° W 00:35:18 63° WSW
Cosmos 2360 Rocket 4.4 00:32:14 10° WNW 00:33:24 13° WNW 00:33:24 13° WNW
Cosmos 2034 Rocket 4.1 00:35:41 57° W 00:36:07 59° WNW 00:42:21 10° N
NPP 4.3 00:31:16 10° NNE 00:36:25 44° E 00:36:53 43° ESE
CZ-2D R/B 2.5 00:32:18 10° NNE 00:37:40 54° E 00:38:05 52° ESE
Okean 2 Rocket 3.9 00:41:46 47° NNW 00:41:46 47° NNW 00:45:16 10° N
GEOS 3 Rocket 3.8 00:36:52 10° NNE 00:42:13 64° NW 00:42:46 60° W
Cosmos 2297 Rocket 2.2 00:45:36 66° SE 00:45:53 67° ESE 00:51:30 10° NNE
ADEOS II 3.6 00:41:42 10° NE 00:46:03 26° E 00:47:27 23° ESE
Cosmos 2219 3.0 00:45:50 76° SE 00:46:04 78° ESE 00:51:43 10° NNE
Cosmos 1092 Rocket 3.8 00:41:00 10° N 00:47:15 81° W 00:48:01 69° SSW
Uosat 12 SS-18 rocket 4.4 00:48:34 68° E 00:48:34 68° E 00:52:47 10° NE
Cosmos 1777 Rocket 3.9 00:49:00 85° WNW 00:49:00 85° WNW 00:54:20 10° NNE
Cosmos 1980 3.5 00:43:39 10° NNW 00:49:22 89° WSW 00:49:52 76° SSE
Helios 1B rocket 4.2 00:46:15 10° N 00:48:49 25° NW 00:48:49 25° NW
Cosmos 2333 Rocket 3.5 00:44:49 10° NW 00:48:11 26° WNW 00:48:11 26° WNW
UNK 3.8 00:52:23 76° ENE 00:52:23 76° ENE 00:56:58 10° N
Cosmos 44 Rocket 4.3 00:51:55 10° NW 00:55:08 37° WNW 00:55:08 37° WNW
Cosmos 2237 Rocket 2.0 00:53:44 10° NNW 00:59:25 80° WSW 00:59:51 74° SSW
Okean 1 Rocket 3.2 01:01:02 67° NE 01:01:02 67° NE 01:05:00 10° NNE
CZ-4C R/B 4.5 01:04:18 34° N 01:04:18 34° N 01:06:25 10° NNW
Cosmos 1626 3.8 01:00:47 10° NNE 01:04:03 28° ENE 01:04:26 28° E
CZ-4B R/B 3.9 00:59:46 10° NNE 01:04:22 46° E 01:04:55 44° ESE
ATLAS 3B CENTAUR R/B 4.3 01:13:43 33° S 01:13:43 33° S 01:20:22 10° SE
Timation 2 Rocket 4.5 01:14:34 39° W 01:16:06 47° WNW 01:21:57 10° NNE
Meteor 1-15 Rocket 4.3 01:22:53 55° WSW 01:23:51 64° WNW 01:29:26 10° N
Cosmos 1805 3.6 01:24:26 59° NNW 01:24:26 59° NNW 01:27:46 10° N
SJ 16-02 1.5 01:25:10 59° SE 01:25:33 62° ESE 01:29:56 10° NNE
SL-14 R/B 3.9 01:23:56 10° N 01:27:47 52° ENE 01:28:24 46° ESE
DNEPR-1 R/B 3.9 01:22:53 10° NW 01:28:39 86° NE 01:31:05 30° SE
ERBS 3.4 01:25:32 10° NW 01:28:43 42° NE 01:31:51 10° ESE
Cosmos 2227 Rocket 2.4 01:33:34 47° WSW 01:34:57 61° WNW 01:40:35 10° NNE
Cosmos 1455 Rocket 3.8 01:34:24 37° SE 01:35:40 49° E 01:39:58 10° NNE
Cosmos 1538 Rocket 4.5 01:31:21 10° NW 01:35:51 41° W 01:35:51 41° W
Resurs 1-4 Rocket 2.6 01:33:22 10° N 01:38:23 45° WNW 01:39:24 40° W
Cosmos 2180 Rocket 4.4 01:36:43 42° S 01:39:01 86° W 01:45:12 10° N
Cosmos 1674 4.1 01:37:39 10° NNW 01:39:47 26° NW 01:39:47 26° NW
Cosmos 1733 3.4 01:42:54 58° WNW 01:42:54 58° WNW 01:46:28 10° N
Cosmos 1892 Rocket 3.6 01:40:13 10° N 01:44:43 80° E 01:46:08 43° SSE
Cosmos 2279 Rocket 4.1 01:44:46 41° SW 01:46:46 60° W 01:52:55 10° N
Cosmos 1461 3.2 01:47:03 50° SSE 01:47:51 61° ESE 01:52:19 10° NE
USA 215 3.2 01:41:43 10° NE 01:48:17 84° NW 01:51:29 34° WSW
COBE Rocket 3.7 01:47:33 52° SSW 01:48:27 65° W 01:53:05 10° NNW
SL-24 R/B 4.4 01:53:40 46° SW 01:54:46 58° W 01:59:40 10° NNW
Cosmos 2082 3.7 01:53:29 41° SW 01:55:29 72° WNW 02:01:07 10° NNE
Cosmos 1340 Rocket 3.3 01:54:19 35° SSE 01:55:40 54° E 01:59:33 10° NNE
SL-4 R/B 2.0 01:58:01 10° NW 02:01:23 61° NNE 02:04:44 10° ESE
Cosmos 2112 Rocket 3.9 01:56:35 10° NNW 02:01:51 88° WSW 02:06:35 12° SSE
Cosmos 1953 4.0 01:59:20 14° SSE 02:02:08 31° E 02:05:42 10° NNE
Cosmos 1726 3.5 02:04:08 19° SSE 02:06:12 36° E 02:09:36 10° NNE
Meteor 1-24 Rocket 3.7 02:01:20 10° NNW 02:06:41 56° W 02:08:55 32° SSW
CBERS-1 4.3 02:02:17 10° N 02:07:16 54° WNW 02:09:09 35° SW
SL-16 R/B 2.2 02:02:23 10° NNW 02:08:00 62° WSW 02:12:33 16° S
Cosmos 1937 Rocket 3.7 02:06:56 28° S 02:09:45 72° ESE 02:15:04 10° NNE
Meteor 2-5 Rocket 4.2 02:05:06 10° NNW 02:10:18 40° W 02:11:59 32° SW
H-2A R/B 3.6 02:09:26 10° SE 02:13:10 34° ENE 02:16:53 10° N
Cosmos 1898 Rocket 3.4 02:11:41 33° SSW 02:14:06 78° WNW 02:19:22 10° NNE
SL-16 R/B 3.6 02:13:42 23° WSW 02:14:34 24° W 02:19:30 10° NW
ARIANE 5 R/B 2.6 02:09:35 10° NNE 02:14:50 85° ESE 02:18:02 25° SSW
CZ-2D R/B 3.6 02:13:05 10° NNW 02:17:20 24° WNW 02:19:24 19° W
IDEFIX/ARIANE 42P 3.0 02:12:35 10° NNE 02:17:44 60° E 02:21:55 16° S
Cosmos 1680 Rocket 3.6 02:14:29 10° NNW 02:19:34 52° WSW 02:22:58 20° S
USA 267 3.4 02:13:18 10° ESE 02:19:49 77° NE 02:26:23 10° NW
NOSS 3-1 (C) 3.2 02:17:24 30° SW 02:20:18 88° SE 02:26:36 10° NE
Cosmos 1544 Rocket 3.5 02:20:01 31° SSW 02:22:08 75° W 02:26:37 10° N
CZ-4C R/B 4.3 02:22:50 10° SE 02:25:49 37° ENE 02:28:53 10° N
Cosmos 990 Rocket 4.2 02:23:20 29° SW 02:25:50 57° WNW 02:30:58 10° NNE
ADEOS II 2.6 02:20:57 10° N 02:25:54 43° WNW 02:28:23 26° WSW
Timation 1 Rocket 4.3 02:22:56 23° SSW 02:26:47 83° ESE 02:32:46 10° NNE
Cosmos 1607 4.1 02:20:38 10° NW 02:26:52 53° WSW 02:33:06 10° SSE
Cosmos 2263 Rocket 2.7 02:23:53 16° S 02:28:13 54° ESE 02:33:38 10° NNE
IRS-1D 4.4 02:25:11 10° N 02:29:40 33° WNW 02:31:54 23° WSW
Cosmos 2297 Rocket 3.8 02:27:24 15° W 02:30:27 22° NW 02:34:47 10° N
Okean 1-7 Rocket 4.1 02:29:02 10° NNW 02:33:10 40° W 02:35:04 26° SW
Meteor 2-10 4.2 02:29:20 16° S 02:33:47 83° E 02:39:25 10° NNE
IRS-1C 4.5 02:30:23 10° N 02:35:32 50° WNW 02:38:42 22° SW
NOSS 2-3 (D) 3.9 02:33:37 23° SSW 02:36:10 61° ESE 02:40:55 10° NE
Meteor 1-28 Rocket 3.6 02:36:21 27° SSW 02:37:53 41° W 02:41:30 10° NNW
Cosmos 1626 3.8 02:36:30 10° NW 02:38:56 18° W 02:38:56 18° W
Cosmos 2266 Rocket 4.4 02:34:07 10° NNW 02:40:09 46° W 02:45:02 15° SSW
Cosmos 2237 Rocket 4.2 02:41:20 10° W 02:41:37 10° W 02:41:37 10° W
Cosmos 1602 Rocket 3.5 02:38:16 10° N 02:42:41 86° E 02:47:00 10° S
Cosmos 1470 3.7 02:41:43 25° WSW 02:43:11 33° WNW 02:46:48 10° N
CZ-2C R/B 3.9 02:41:46 10° NNE 02:45:53 32° E 02:50:01 10° SSE
SL-08 R/B 4.0 02:43:56 18° SSW 02:47:10 38° W 02:51:48 10° NNW
Cosmos 1603 3.9 02:41:50 10° NNW 02:47:37 79° ENE 02:53:19 10° SSE
Meteor 2-21 Rocket 4.4 02:42:46 10° N 02:48:52 89° E 02:54:57 10° S
USA 229 DEB 3.7 02:48:34 18° SW 02:53:33 69° NW 03:00:25 10° NNE
Helios 1B 4.5 02:49:14 10° S 02:53:33 74° WSW 02:57:54 10° NNW
USA 229 3.7 02:48:40 18° SW 02:53:38 70° NW 03:00:29 10° NE
Cosmos 2098 Rocket 4.4 02:50:52 10° NNW 02:55:12 31° W 02:59:34 13° SSW
Nadezhda 2 Rocket 4.4 02:52:02 10° NNW 02:58:16 74° W 03:04:23 10° S
Cosmos 2298 Rocket 4.3 02:57:32 10° S 03:02:48 72° ESE 03:08:08 10° NNE
NOSS 2-3 (C) 3.7 03:01:07 17° SW 03:04:25 72° NW 03:09:23 10° NE
SJ 16-02 3.4 03:02:10 11° W 03:04:34 15° NW 03:07:09 10° NNW
NOSS 3-1 (A) 3.3 03:00:07 15° SW 03:04:38 75° NW 03:11:00 10° NE
ERBS 3.6 03:03:33 16° W 03:04:45 19° SW 03:07:06 10° S
MSX 3.9 03:08:00 10° N 03:13:44 67° WNW 03:19:26 10° SSW
PSLV R/B 3.7 03:10:21 10° NNE 03:14:46 78° ESE 03:19:07 10° S
Cosmos 1943 3.1 03:09:13 10° NNW 03:14:50 77° WSW 03:20:26 10° SSE
Cosmos 1626 Rocket 4.4 03:11:38 10° NNW 03:15:26 31° W 03:19:13 10° SSW
Cosmos 2227 Rocket 4.3 03:17:58 10° WNW 03:20:15 12° NW 03:22:33 10° NNW
PAYLOAD A 4.2 03:15:44 10° NNE 03:21:09 87° ESE 03:26:22 10° SSW
deb Chang Zheng 4 4.2 03:17:19 10° NNE 03:21:37 58° ESE 03:25:55 10° S
SeaSat 1 2.5 03:17:17 10° NNE 03:22:14 71° WNW 03:27:07 10° SW
Landsat 5 3.8 03:19:47 10° S 03:23:27 40° W 03:27:13 10° NNW
CZ-2C R/B 3.6 03:22:53 10° N 03:26:24 33° WNW 03:29:50 10° SW
Cosmos 2058 Rocket 4.3 03:23:36 10° SSE 03:27:51 45° E 03:32:08 10° NNE
USA 215 4.4 03:24:57 10° NE 03:30:49 37° NNW 03:36:40 10° W
Cosmos 1048 Rocket 4.0 03:26:20 10° NNW 03:31:30 88° WSW 03:36:40 10° SSE
Meteor 1-11 4.4 03:25:41 10° N 03:31:30 88° E 03:37:12 10° S
FALCON 9 DEB 3.4 03:28:38 10° WNW 03:32:01 48° SW 03:35:21 10° SE
ATLAS CENTAUR R/B 2.3 03:28:11 10° SSW 03:32:13 44° ESE 03:36:02 10° NE
Cosmos 1356 Rocket 3.9 03:28:03 10° S 03:32:15 67° E 03:36:24 10° NNE
Cosmos 1758 Rocket 3.7 03:29:19 10° NNW 03:33:31 53° W 03:37:43 10° S
ATLAS 3B CENTAUR R/B 4.1 03:28:27 10° WSW 03:34:21 18° SSW 03:38:06 10° SSE
ERS-2 2.9 03:31:28 10° SSW 03:34:44 31° W 03:38:01 10° NW
Cosmos 2228 3.0 03:31:57 10° SSW 03:36:17 71° W 03:40:41 10° N
Cosmos 1953 3.8 03:35:32 10° WSW 03:38:34 20° WNW 03:41:38 10° NNW
